Time,TemperatureF,DewpointF,PressureIn,WindDirection,WindDirectionDegrees,WindSpeedMPH,WindSpeedGustMPH,Humidity,HourlyPrecipIn,Conditions,Clouds,dailyrainin,SolarRadiationWatts/m^2,SoftwareType,DateUTC
2013-05-27 00:03:00,44.0,38.0,-100.00,North,10,0.0,5.0,80,0.00,,,0.00,0.000000,,2013-05-27 04:03:00,
2013-05-27 00:12:00,44.0,38.0,-100.00,North,10,0.0,5.0,80,0.00,,,0.00,0.000000,,2013-05-27 04:12:00,
2013-05-27 00:33:00,39.0,36.0,-100.00,North,352,0.0,3.0,88,0.00,,,0.00,0.000000,,2013-05-27 04:33:00,
2013-05-27 00:43:00,39.0,36.0,-100.00,North,352,0.0,3.0,88,0.00,,,0.00,0.000000,,2013-05-27 04:43:00,
2013-05-27 00:53:00,39.0,36.0,-100.00,North,352,0.0,3.0,88,0.00,,,0.00,0.000000,,2013-05-27 04:53:00,
2013-05-27 01:02:00,39.0,36.0,-100.00,North,352,0.0,3.0,88,0.00,,,0.00,0.000000,,2013-05-27 05:02:00,
2013-05-27 01:12:00,39.0,36.0,-100.00,North,352,0.0,3.0,88,0.00,,,0.00,0.000000,,2013-05-27 05:12:00,
2013-05-27 01:32:00,38.0,36.0,-100.00,NNW,336,2.0,5.0,93,0.00,,,0.00,0.000000,,2013-05-27 05:32:00,
2013-05-27 01:42:00,38.0,36.0,-100.00,NNW,336,2.0,5.0,93,0.00,,,0.00,0.000000,,2013-05-27 05:42:00,
2013-05-27 01:52:00,38.0,36.0,-100.00,NNW,336,2.0,5.0,93,0.00,,,0.00,0.000000,,2013-05-27 05:52:00,
2013-05-27 02:02:00,38.0,36.0,-100.00,NNW,336,2.0,5.0,93,0.00,,,0.00,0.000000,,2013-05-27 06:02:00,
2013-05-27 02:11:00,38.0,36.0,-100.00,NNW,336,2.0,5.0,93,0.00,,,0.00,0.000000,,2013-05-27 06:11:00,
2013-05-27 02:32:00,47.0,36.0,-100.00,NNW,336,3.0,7.0,66,0.00,,,0.00,0.000000,,2013-05-27 06:32:00,
2013-05-27 02:42:00,47.0,36.0,-100.00,NNW,336,3.0,7.0,66,0.00,,,0.00,0.000000,,2013-05-27 06:42:00,
2013-05-27 02:52:00,47.0,36.0,-100.00,NNW,336,3.0,7.0,66,0.00,,,0.00,0.000000,,2013-05-27 06:52:00,
2013-05-27 03:02:00,47.0,36.0,-100.00,NNW,336,3.0,7.0,66,0.00,,,0.00,0.000000,,2013-05-27 07:02:00,
2013-05-27 03:11:00,47.0,36.0,-100.00,NNW,336,3.0,7.0,66,0.00,,,0.00,0.000000,,2013-05-27 07:11:00,
2013-05-27 03:32:00,48.0,35.0,-100.00,NNW,331,4.0,9.0,61,0.00,,,0.00,0.000000,,2013-05-27 07:32:00,
2013-05-27 03:42:00,48.0,35.0,-100.00,NNW,331,4.0,9.0,61,0.00,,,0.00,0.000000,,2013-05-27 07:42:00,
2013-05-27 03:53:00,48.0,35.0,-100.00,NNW,331,4.0,9.0,61,0.00,,,0.00,0.000000,,2013-05-27 07:53:00,
2013-05-27 04:02:00,48.0,35.0,-100.00,NNW,331,4.0,9.0,61,0.00,,,0.00,0.000000,,2013-05-27 08:02:00,
2013-05-27 04:11:00,48.0,35.0,-100.00,NNW,331,4.0,9.0,61,0.00,,,0.00,0.000000,,2013-05-27 08:11:00,
2013-05-27 04:33:00,48.0,36.0,-100.00,NW,323,5.0,9.0,62,0.00,,,0.00,0.000000,,2013-05-27 08:33:00,
2013-05-27 04:42:00,48.0,36.0,-100.00,NW,323,5.0,9.0,62,0.00,,,0.00,0.000000,,2013-05-27 08:42:00,
2013-05-27 04:52:00,48.0,36.0,-100.00,NW,323,5.0,9.0,62,0.00,,,0.00,0.000000,,2013-05-27 08:52:00,
2013-05-27 05:02:00,48.0,36.0,-100.00,NW,323,5.0,9.0,62,0.00,,,0.00,0.000000,,2013-05-27 09:02:00,
2013-05-27 05:11:00,48.0,36.0,-100.00,NW,323,5.0,9.0,62,0.00,,,0.00,0.000000,,2013-05-27 09:11:00,
2013-05-27 05:33:00,47.0,35.0,-100.00,NW,323,5.0,8.0,64,0.00,,,0.00,0.000000,,2013-05-27 09:33:00,
2013-05-27 05:42:00,47.0,35.0,-100.00,NW,323,5.0,8.0,64,0.00,,,0.00,0.000000,,2013-05-27 09:42:00,
2013-05-27 05:53:00,47.0,35.0,-100.00,NW,323,5.0,8.0,64,0.00,,,0.00,0.000000,,2013-05-27 09:53:00,
2013-05-27 06:03:00,47.0,35.0,-100.00,NW,323,5.0,8.0,64,0.00,,,0.00,0.000000,,2013-05-27 10:03:00,
2013-05-27 06:12:00,47.0,35.0,-100.00,NW,323,5.0,8.0,64,0.00,,,0.00,0.000000,,2013-05-27 10:12:00,
2013-05-27 06:32:00,46.0,36.0,-100.00,NNW,327,3.0,8.0,67,0.00,,,0.00,9.000000,,2013-05-27 10:32:00,
2013-05-27 06:42:00,46.0,36.0,-100.00,NNW,327,3.0,8.0,67,0.00,,,0.00,9.000000,,2013-05-27 10:42:00,
2013-05-27 06:53:00,46.0,36.0,-100.00,NNW,327,3.0,8.0,67,0.00,,,0.00,9.000000,,2013-05-27 10:53:00,
2013-05-27 07:02:00,46.0,36.0,-100.00,NNW,327,3.0,8.0,67,0.00,,,0.00,9.000000,,2013-05-27 11:02:00,
2013-05-27 07:11:00,46.0,36.0,-100.00,NNW,327,3.0,8.0,67,0.00,,,0.00,9.000000,,2013-05-27 11:11:00,
2013-05-27 07:32:00,51.0,37.0,-100.00,NNW,327,6.0,10.0,59,0.00,,,0.00,110.000000,,2013-05-27 11:32:00,
2013-05-27 07:42:00,51.0,37.0,-100.00,NNW,327,6.0,10.0,59,0.00,,,0.00,110.000000,,2013-05-27 11:42:00,
2013-05-27 07:52:00,51.0,37.0,-100.00,NNW,327,6.0,10.0,59,0.00,,,0.00,110.000000,,2013-05-27 11:52:00,
2013-05-27 08:02:00,51.0,37.0,-100.00,NNW,327,6.0,10.0,59,0.00,,,0.00,110.000000,,2013-05-27 12:02:00,
2013-05-27 08:11:00,51.0,37.0,-100.00,NNW,327,6.0,10.0,59,0.00,,,0.00,110.000000,,2013-05-27 12:11:00,
2013-05-27 08:32:00,55.0,38.0,-100.00,NNW,327,7.0,15.0,53,0.00,,,0.00,202.000000,,2013-05-27 12:32:00,
2013-05-27 08:42:00,55.0,38.0,-100.00,NNW,327,7.0,15.0,53,0.00,,,0.00,202.000000,,2013-05-27 12:42:00,
2013-05-27 08:52:00,55.0,38.0,-100.00,NNW,327,7.0,15.0,53,0.00,,,0.00,202.000000,,2013-05-27 12:52:00,
2013-05-27 09:02:00,55.0,38.0,-100.00,NNW,327,7.0,15.0,53,0.00,,,0.00,202.000000,,2013-05-27 13:02:00,
2013-05-27 09:11:00,55.0,38.0,-100.00,NNW,327,7.0,15.0,53,0.00,,,0.00,202.000000,,2013-05-27 13:11:00,
2013-05-27 09:42:00,57.0,38.0,-100.00,NW,322,9.0,17.0,48,0.00,,,0.00,267.000000,,2013-05-27 13:42:00,
2013-05-27 09:53:00,57.0,38.0,-100.00,NW,322,9.0,17.0,48,0.00,,,0.00,267.000000,,2013-05-27 13:53:00,
2013-05-27 10:02:00,57.0,38.0,-100.00,NW,322,9.0,17.0,48,0.00,,,0.00,267.000000,,2013-05-27 14:02:00,
2013-05-27 10:11:00,57.0,38.0,-100.00,NW,322,9.0,17.0,48,0.00,,,0.00,267.000000,,2013-05-27 14:11:00,
2013-05-27 10:42:00,61.0,37.0,-100.00,NW,326,7.0,15.0,41,0.00,,,0.00,311.000000,,2013-05-27 14:42:00,
2013-05-27 10:52:00,61.0,37.0,-100.00,NW,326,7.0,15.0,41,0.00,,,0.00,311.000000,,2013-05-27 14:52:00,
2013-05-27 11:02:00,61.0,37.0,-100.00,NW,326,7.0,15.0,41,0.00,,,0.00,311.000000,,2013-05-27 15:02:00,
2013-05-27 11:11:00,61.0,37.0,-100.00,NW,326,7.0,15.0,41,0.00,,,0.00,311.000000,,2013-05-27 15:11:00,
2013-05-27 11:33:00,64.0,34.0,-100.00,NW,314,9.0,19.0,32,0.00,,,0.00,347.000000,,2013-05-27 15:33:00,
2013-05-27 11:43:00,64.0,34.0,-100.00,NW,314,9.0,19.0,32,0.00,,,0.00,347.000000,,2013-05-27 15:43:00,
2013-05-27 11:53:00,64.0,34.0,-100.00,NW,314,9.0,19.0,32,0.00,,,0.00,347.000000,,2013-05-27 15:53:00,
2013-05-27 12:03:00,64.0,34.0,-100.00,NW,314,9.0,19.0,32,0.00,,,0.00,347.000000,,2013-05-27 16:03:00,
2013-05-27 12:12:00,64.0,34.0,-100.00,NW,314,9.0,19.0,32,0.00,,,0.00,347.000000,,2013-05-27 16:12:00,
2013-05-27 12:33:00,66.0,28.0,-100.00,NNW,333,11.0,24.0,24,0.00,,,0.00,382.000000,,2013-05-27 16:33:00,
2013-05-27 12:42:00,66.0,28.0,-100.00,NNW,333,11.0,24.0,24,0.00,,,0.00,382.000000,,2013-05-27 16:42:00,
2013-05-27 12:53:00,66.0,28.0,-100.00,NNW,333,11.0,24.0,24,0.00,,,0.00,382.000000,,2013-05-27 16:53:00,
2013-05-27 13:02:00,66.0,28.0,-100.00,NNW,333,11.0,24.0,24,0.00,,,0.00,382.000000,,2013-05-27 17:02:00,
2013-05-27 13:12:00,66.0,28.0,-100.00,NNW,333,11.0,24.0,24,0.00,,,0.00,382.000000,,2013-05-27 17:12:00,
2013-05-27 13:32:00,67.0,30.0,-100.00,NW,309,9.0,21.0,25,0.00,,,0.00,395.000000,,2013-05-27 17:32:00,
2013-05-27 13:43:00,67.0,30.0,-100.00,NW,309,9.0,21.0,25,0.00,,,0.00,395.000000,,2013-05-27 17:43:00,
2013-05-27 13:52:00,67.0,30.0,-100.00,NW,309,9.0,21.0,25,0.00,,,0.00,395.000000,,2013-05-27 17:52:00,
2013-05-27 14:02:00,67.0,30.0,-100.00,NW,309,9.0,21.0,25,0.00,,,0.00,395.000000,,2013-05-27 18:02:00,
2013-05-27 14:11:00,67.0,30.0,-100.00,NW,309,9.0,21.0,25,0.00,,,0.00,395.000000,,2013-05-27 18:11:00,
2013-05-27 14:32:00,69.0,33.0,-100.00,NW,326,8.0,21.0,26,0.00,,,0.00,390.000000,,2013-05-27 18:32:00,
2013-05-27 14:42:00,69.0,33.0,-100.00,NW,326,8.0,21.0,26,0.00,,,0.00,390.000000,,2013-05-27 18:42:00,
2013-05-27 14:52:00,69.0,33.0,-100.00,NW,326,8.0,21.0,26,0.00,,,0.00,390.000000,,2013-05-27 18:52:00,
2013-05-27 15:01:00,69.0,33.0,-100.00,NW,326,8.0,21.0,26,0.00,,,0.00,390.000000,,2013-05-27 19:01:00,
2013-05-27 15:11:00,69.0,33.0,-100.00,NW,326,8.0,21.0,26,0.00,,,0.00,390.000000,,2013-05-27 19:11:00,
2013-05-27 15:32:00,70.0,34.0,-100.00,WNW,283,8.0,18.0,27,0.00,,,0.00,372.000000,,2013-05-27 19:32:00,
2013-05-27 15:42:00,70.0,34.0,-100.00,WNW,283,8.0,18.0,27,0.00,,,0.00,372.000000,,2013-05-27 19:42:00,
2013-05-27 15:52:00,70.0,34.0,-100.00,WNW,283,8.0,18.0,27,0.00,,,0.00,372.000000,,2013-05-27 19:52:00,
2013-05-27 16:02:00,70.0,34.0,-100.00,WNW,283,8.0,18.0,27,0.00,,,0.00,372.000000,,2013-05-27 20:02:00,
2013-05-27 16:11:00,70.0,34.0,-100.00,WNW,283,8.0,18.0,27,0.00,,,0.00,372.000000,,2013-05-27 20:11:00,
2013-05-27 16:32:00,71.0,35.0,-100.00,WNW,298,6.0,21.0,27,0.00,,,0.00,339.000000,,2013-05-27 20:32:00,
2013-05-27 16:42:00,71.0,35.0,-100.00,WNW,298,6.0,21.0,27,0.00,,,0.00,339.000000,,2013-05-27 20:42:00,
2013-05-27 16:53:00,71.0,35.0,-100.00,WNW,298,6.0,21.0,27,0.00,,,0.00,339.000000,,2013-05-27 20:53:00,
2013-05-27 17:01:00,71.0,35.0,-100.00,WNW,298,6.0,21.0,27,0.00,,,0.00,339.000000,,2013-05-27 21:01:00,
2013-05-27 17:12:00,71.0,35.0,-100.00,WNW,298,6.0,21.0,27,0.00,,,0.00,339.000000,,2013-05-27 21:12:00,
2013-05-27 17:33:00,71.0,35.0,-100.00,West,279,7.0,18.0,27,0.00,,,0.00,292.000000,,2013-05-27 21:33:00,
2013-05-27 17:43:00,71.0,35.0,-100.00,West,279,7.0,18.0,27,0.00,,,0.00,292.000000,,2013-05-27 21:43:00,
2013-05-27 17:53:00,71.0,35.0,-100.00,West,279,7.0,18.0,27,0.00,,,0.00,292.000000,,2013-05-27 21:53:00,
2013-05-27 18:03:00,71.0,35.0,-100.00,West,279,7.0,18.0,27,0.00,,,0.00,292.000000,,2013-05-27 22:03:00,
2013-05-27 18:13:00,71.0,35.0,-100.00,West,279,7.0,18.0,27,0.00,,,0.00,292.000000,,2013-05-27 22:13:00,
2013-05-27 18:33:00,70.0,33.0,-100.00,WNW,295,5.0,17.0,25,0.00,,,0.00,233.000000,,2013-05-27 22:33:00,
2013-05-27 18:42:00,70.0,33.0,-100.00,WNW,295,5.0,17.0,25,0.00,,,0.00,233.000000,,2013-05-27 22:42:00,
2013-05-27 18:53:00,70.0,33.0,-100.00,WNW,295,5.0,17.0,25,0.00,,,0.00,233.000000,,2013-05-27 22:53:00,
2013-05-27 19:02:00,70.0,33.0,-100.00,WNW,295,5.0,17.0,25,0.00,,,0.00,233.000000,,2013-05-27 23:02:00,
2013-05-27 19:12:00,70.0,33.0,-100.00,WNW,295,5.0,17.0,25,0.00,,,0.00,233.000000,,2013-05-27 23:12:00,
2013-05-27 19:42:00,68.0,31.0,-100.00,NW,312,6.0,18.0,25,0.00,,,0.00,132.000000,,2013-05-27 23:42:00,
2013-05-27 19:52:00,68.0,31.0,-100.00,NW,312,6.0,18.0,25,0.00,,,0.00,132.000000,,2013-05-27 23:52:00,
2013-05-27 20:01:00,68.0,31.0,-100.00,NW,312,6.0,18.0,25,0.00,,,0.00,132.000000,,2013-05-28 00:01:00,
2013-05-27 20:11:00,68.0,31.0,-100.00,NW,312,6.0,18.0,25,0.00,,,0.00,132.000000,,2013-05-28 00:11:00,
2013-05-27 21:32:00,59.0,32.0,-100.00,NW,325,3.0,7.0,36,-99.99,,,0.00,1.000000,,2013-05-28 01:32:00,
2013-05-27 21:42:00,59.0,32.0,-100.00,NW,325,3.0,7.0,36,-99.99,,,0.00,1.000000,,2013-05-28 01:42:00,
2013-05-27 21:52:00,59.0,32.0,-100.00,NW,325,3.0,7.0,36,-99.99,,,0.00,1.000000,,2013-05-28 01:52:00,
2013-05-27 22:02:00,59.0,32.0,-100.00,NW,325,3.0,7.0,36,-99.99,,,0.00,1.000000,,2013-05-28 02:02:00,
2013-05-27 22:11:00,59.0,32.0,-100.00,NW,325,3.0,7.0,36,-99.99,,,0.00,1.000000,,2013-05-28 02:11:00,
2013-05-27 22:32:00,55.0,33.0,-100.00,NW,305,1.0,7.0,43,0.00,,,0.00,0.000000,,2013-05-28 02:32:00,
2013-05-27 22:42:00,55.0,33.0,-100.00,NW,305,1.0,7.0,43,0.00,,,0.00,0.000000,,2013-05-28 02:42:00,
2013-05-27 22:52:00,55.0,33.0,-100.00,NW,305,1.0,7.0,43,0.00,,,0.00,0.000000,,2013-05-28 02:52:00,
2013-05-27 23:01:00,55.0,33.0,-100.00,NW,305,1.0,7.0,43,0.00,,,0.00,0.000000,,2013-05-28 03:01:00,
2013-05-27 23:11:00,55.0,33.0,-100.00,NW,305,1.0,7.0,43,0.00,,,0.00,0.000000,,2013-05-28 03:11:00,
2013-05-27 23:33:00,50.0,35.0,-100.00,WNW,302,1.0,3.0,57,0.00,,,0.00,0.000000,,2013-05-28 03:33:00,
2013-05-27 23:43:00,50.0,35.0,-100.00,WNW,302,1.0,3.0,57,0.00,,,0.00,0.000000,,2013-05-28 03:43:00,
2013-05-27 23:53:00,50.0,35.0,-100.00,WNW,302,1.0,3.0,57,0.00,,,0.00,0.000000,,2013-05-28 03:53:00,